AAL2691 TFFF-KMIA

Flight info

Callsign AAL2691
Flight time 3h 32m
Altitude 24000
Route EMOLA2R EMOLA A555 DUNTA/N0462F360 UA555 ILURI Y185 ACONY Y308 MADIZ VIICE2
Aircraft A319/M-SDE3FGHIRWY/LB1

Departure

Time 2026-05-08 15:06
Airport Martinique Aimé Césaire International Airport (TFFF)

Arrival

Time 2026-05-08 18:38
Airport Miami International Airport (KMIA)
Time Latitude Longitude Altitude Speed Heading
2026-05-08 14:37 14.59492 -61.00089 20 ft 0 kts 34°
2026-05-08 14:55 14.59487 -61.00093 20 ft 2 kts 34°
2026-05-08 14:56 14.59469 -61.00105 21 ft 2 kts 34°
2026-05-08 14:56 14.59456 -61.00114 22 ft 2 kts 34°
2026-05-08 14:56 14.59447 -61.00121 20 ft 2 kts 34°
2026-05-08 14:56 14.59434 -61.00130 22 ft 2 kts 34°
2026-05-08 14:57 14.59420 -61.00140 21 ft 2 kts 55°
2026-05-08 14:57 14.59415 -61.00155 21 ft 2 kts 101°
2026-05-08 14:57 14.59418 -61.00166 21 ft 0 kts 126°
2026-05-08 15:00 14.59411 -61.00156 22 ft 5 kts 122°
2026-05-08 15:00 14.59387 -61.00105 20 ft 9 kts 112°
2026-05-08 15:00 14.59350 -61.00046 20 ft 11 kts 149°
2026-05-08 15:01 14.59282 -61.00031 20 ft 7 kts 170°
2026-05-08 15:01 14.59266 -61.00028 19 ft 2 kts 170°
2026-05-08 15:01 14.59230 -61.00022 19 ft 9 kts 170°
2026-05-08 15:01 14.59159 -61.00036 17 ft 12 kts 227°
2026-05-08 15:02 14.59138 -61.00128 16 ft 15 kts 261°
2026-05-08 15:02 14.59118 -61.00250 16 ft 20 kts 260°
2026-05-08 15:02 14.59090 -61.00409 17 ft 24 kts 259°
2026-05-08 15:02 14.59059 -61.00595 16 ft 27 kts 260°
2026-05-08 15:03 14.59026 -61.00786 19 ft 27 kts 260°
2026-05-08 15:03 14.58992 -61.00978 19 ft 28 kts 260°
2026-05-08 15:03 14.58960 -61.01169 22 ft 27 kts 260°
2026-05-08 15:03 14.58928 -61.01360 21 ft 27 kts 260°
2026-05-08 15:04 14.58894 -61.01558 20 ft 28 kts 260°
2026-05-08 15:04 14.58868 -61.01722 18 ft 14 kts 274°
2026-05-08 15:04 14.58903 -61.01799 19 ft 8 kts 272°
2026-05-08 15:04 14.58857 -61.01815 18 ft 8 kts 151°
2026-05-08 15:05 14.58854 -61.01784 18 ft 4 kts 76°
2026-05-08 15:05 14.58869 -61.01696 19 ft 35 kts 80°
2026-05-08 15:05 14.58948 -61.01240 21 ft 93 kts 80°
2026-05-08 15:05 14.59095 -61.00387 17 ft 147 kts 80°
2026-05-08 15:06 14.59281 -60.99285 479 ft 155 kts 80°
2026-05-08 15:06 14.59472 -60.98200 1003 ft 157 kts 79°
2026-05-08 15:06 14.59671 -60.97089 1585 ft 158 kts 77°
2026-05-08 15:06 14.59880 -60.95925 2024 ft 175 kts 77°
2026-05-08 15:07 14.60101 -60.94611 2242 ft 198 kts 79°
2026-05-08 15:07 14.60351 -60.93105 2427 ft 226 kts 79°
2026-05-08 15:07 14.60630 -60.91431 2932 ft 244 kts 79°
2026-05-08 15:07 14.60989 -60.89715 3704 ft 250 kts 68°
2026-05-08 15:08 14.62095 -60.88324 4465 ft 258 kts 33°
2026-05-08 15:08 14.63219 -60.87889 4978 ft 267 kts 10°
2026-05-08 15:08 14.65713 -60.88262 6075 ft 278 kts 344°
2026-05-08 15:08 14.67546 -60.88961 6879 ft 281 kts 341°
2026-05-08 15:09 14.69387 -60.89680 7642 ft 284 kts 343°
2026-05-08 15:09 14.71274 -60.90326 8394 ft 286 kts 346°
2026-05-08 15:09 14.73203 -60.90885 9138 ft 289 kts 347°
2026-05-08 15:09 14.75143 -60.91368 9842 ft 292 kts 349°
2026-05-08 15:10 14.77153 -60.91821 10390 ft 301 kts 349°
2026-05-08 15:10 14.79285 -60.92274 10526 ft 324 kts 350°
2026-05-08 15:10 14.81567 -60.92741 10647 ft 345 kts 350°
2026-05-08 15:10 14.83977 -60.93230 10951 ft 357 kts 350°
2026-05-08 15:11 14.86428 -60.93733 11488 ft 360 kts 349°
2026-05-08 15:11 14.88893 -60.94297 12052 ft 364 kts 343°
2026-05-08 15:11 14.91187 -60.95359 12590 ft 368 kts 328°
2026-05-08 15:11 14.93191 -60.97007 13194 ft 370 kts 314°
2026-05-08 15:12 14.94749 -60.99125 13816 ft 372 kts 300°
2026-05-08 15:12 14.95755 -61.01607 14309 ft 376 kts 288°
2026-05-08 15:12 14.96485 -61.04219 14783 ft 379 kts 288°
2026-05-08 15:12 14.97223 -61.06857 15198 ft 383 kts 288°
2026-05-08 15:13 14.97972 -61.09517 15613 ft 388 kts 288°
2026-05-08 15:13 14.98735 -61.12217 16045 ft 391 kts 288°
2026-05-08 15:13 14.99496 -61.14895 16477 ft 395 kts 289°
2026-05-08 15:13 15.00281 -61.17649 16917 ft 399 kts 289°
2026-05-08 15:14 15.01070 -61.20413 17357 ft 402 kts 289°
2026-05-08 15:14 15.01865 -61.23209 17797 ft 406 kts 289°
2026-05-08 15:14 15.02651 -61.25987 18230 ft 409 kts 289°
2026-05-08 15:14 15.03452 -61.28821 18616 ft 412 kts 290°
2026-05-08 15:15 15.04258 -61.31680 19014 ft 415 kts 290°
2026-05-08 15:15 15.05069 -61.34561 19411 ft 418 kts 290°
2026-05-08 15:15 15.05886 -61.37462 19810 ft 421 kts 290°
2026-05-08 15:15 15.06710 -61.40377 20202 ft 423 kts 290°
2026-05-08 15:16 15.07538 -61.43314 20592 ft 426 kts 290°
2026-05-08 15:16 15.08369 -61.46265 20962 ft 428 kts 290°
2026-05-08 15:16 15.09204 -61.49237 21334 ft 431 kts 290°
2026-05-08 15:16 15.10033 -61.52186 21696 ft 433 kts 290°
2026-05-08 15:17 15.10882 -61.55198 22053 ft 435 kts 290°
2026-05-08 15:17 15.11733 -61.58224 22404 ft 438 kts 291°
2026-05-08 15:17 15.12604 -61.61258 22754 ft 438 kts 293°
2026-05-08 15:17 15.13783 -61.64105 23091 ft 435 kts 303°
2026-05-08 15:18 15.15413 -61.66730 23439 ft 431 kts 313°
2026-05-08 15:18 15.17375 -61.69067 23743 ft 430 kts 317°
2026-05-08 15:18 15.19388 -61.71371 24030 ft 432 kts 317°
2026-05-08 15:18 15.21408 -61.73688 24320 ft 434 kts 316°
2026-05-08 15:19 15.23432 -61.76017 24609 ft 435 kts 316°
2026-05-08 15:19 15.25462 -61.78353 24890 ft 437 kts 316°
2026-05-08 15:19 15.27502 -61.80707 25167 ft 439 kts 316°
2026-05-08 15:19 15.29524 -61.83045 25436 ft 441 kts 316°
2026-05-08 15:20 15.31580 -61.85418 25707 ft 443 kts 316°
2026-05-08 15:20 15.33644 -61.87802 25983 ft 445 kts 316°
2026-05-08 15:20 15.35715 -61.90195 26255 ft 447 kts 315°
2026-05-08 15:20 15.37798 -61.92603 26529 ft 448 kts 316°
2026-05-08 15:21 15.39892 -61.95022 26768 ft 451 kts 316°
2026-05-08 15:21 15.41997 -61.97452 27022 ft 453 kts 316°
2026-05-08 15:21 15.44081 -61.99857 27273 ft 454 kts 316°
2026-05-08 15:21 15.46206 -62.02308 27527 ft 456 kts 316°
2026-05-08 15:22 15.48331 -62.04756 27768 ft 458 kts 316°
2026-05-08 15:22 15.50474 -62.07228 27997 ft 461 kts 316°
2026-05-08 15:22 15.52620 -62.09710 28238 ft 462 kts 316°
2026-05-08 15:22 15.54777 -62.12211 28484 ft 464 kts 316°
2026-05-08 15:23 15.56911 -62.14689 28720 ft 466 kts 316°
2026-05-08 15:23 15.59080 -62.17204 28964 ft 467 kts 316°
2026-05-08 15:23 15.61256 -62.19723 29316 ft 466 kts 316°
2026-05-08 15:23 15.63419 -62.22229 29674 ft 465 kts 316°
2026-05-08 15:24 15.65549 -62.24701 30009 ft 465 kts 316°
2026-05-08 15:24 15.67714 -62.27214 30321 ft 464 kts 316°
2026-05-08 15:24 15.69868 -62.29714 30624 ft 463 kts 316°
2026-05-08 15:24 15.72017 -62.32207 30956 ft 462 kts 316°
2026-05-08 15:25 15.74159 -62.34693 31287 ft 461 kts 316°
2026-05-08 15:25 15.76270 -62.37144 31608 ft 459 kts 316°
2026-05-08 15:25 15.78396 -62.39613 31951 ft 458 kts 316°
2026-05-08 15:25 15.80523 -62.42088 32287 ft 457 kts 316°
2026-05-08 15:26 15.82642 -62.44559 32633 ft 455 kts 316°
2026-05-08 15:26 15.84743 -62.47008 32983 ft 454 kts 317°
2026-05-08 15:26 15.86813 -62.49419 33360 ft 452 kts 317°
2026-05-08 15:26 15.88903 -62.51853 33738 ft 450 kts 317°
2026-05-08 15:27 15.90980 -62.54272 34099 ft 447 kts 317°
2026-05-08 15:27 15.93049 -62.56683 34443 ft 445 kts 317°
2026-05-08 15:27 15.95108 -62.59083 34754 ft 444 kts 317°
2026-05-08 15:27 15.97164 -62.61478 35041 ft 443 kts 317°
2026-05-08 15:28 15.99213 -62.63867 35310 ft 442 kts 317°
2026-05-08 15:28 16.01263 -62.66256 35569 ft 442 kts 317°
2026-05-08 15:28 16.03281 -62.68609 35822 ft 441 kts 316°
2026-05-08 15:28 16.05322 -62.70991 35997 ft 441 kts 316°
2026-05-08 15:29 16.09410 -62.75769 36043 ft 440 kts 316°
2026-05-08 15:29 16.13464 -62.80508 36046 ft 440 kts 316°
2026-05-08 15:30 16.17538 -62.85264 36048 ft 440 kts 316°
2026-05-08 15:30 16.21605 -62.90026 36048 ft 440 kts 316°
2026-05-08 15:31 16.25648 -62.94761 36045 ft 440 kts 316°
2026-05-08 15:31 16.29716 -62.99527 36052 ft 440 kts 316°
2026-05-08 15:32 16.33685 -63.04426 36051 ft 442 kts 314°
2026-05-08 15:32 16.37481 -63.09426 36052 ft 442 kts 313°
2026-05-08 15:33 16.41295 -63.14466 36044 ft 442 kts 313°
2026-05-08 15:33 16.45133 -63.19447 36048 ft 442 kts 314°
2026-05-08 15:34 16.49008 -63.24435 36051 ft 442 kts 314°
2026-05-08 15:34 16.52849 -63.29397 36051 ft 442 kts 314°
2026-05-08 15:35 16.56699 -63.34397 36051 ft 442 kts 314°
2026-05-08 15:35 16.60548 -63.39395 36050 ft 442 kts 314°
2026-05-08 15:36 16.63749 -63.43554 36038 ft 441 kts 314°
2026-05-08 15:36 16.68218 -63.49368 36042 ft 441 kts 313°
2026-05-08 15:37 16.72065 -63.54369 36043 ft 441 kts 314°
2026-05-08 15:37 16.75888 -63.59335 36044 ft 441 kts 313°
2026-05-08 15:38 16.79735 -63.64341 36046 ft 441 kts 313°
2026-05-08 15:38 16.83557 -63.69309 36045 ft 441 kts 313°
2026-05-08 15:39 16.87390 -63.74321 36034 ft 441 kts 313°
2026-05-08 15:39 16.91226 -63.79338 36040 ft 441 kts 313°
2026-05-08 15:40 16.95055 -63.84326 36042 ft 442 kts 313°
2026-05-08 15:40 16.98902 -63.89348 36041 ft 442 kts 314°
2026-05-08 15:41 17.02722 -63.94353 36040 ft 443 kts 314°
2026-05-08 15:41 17.06572 -63.99386 36041 ft 443 kts 314°
2026-05-08 15:42 17.10432 -64.04433 36041 ft 443 kts 313°
2026-05-08 15:42 17.14257 -64.09450 36035 ft 444 kts 313°
2026-05-08 15:43 17.17463 -64.13661 36039 ft 444 kts 313°
2026-05-08 15:43 17.21948 -64.19549 36044 ft 444 kts 313°
2026-05-08 15:44 17.25153 -64.23756 36048 ft 444 kts 313°
2026-05-08 15:44 17.29004 -64.28812 36050 ft 444 kts 313°
2026-05-08 15:45 17.32853 -64.33885 36045 ft 444 kts 313°
2026-05-08 15:45 17.36669 -64.38921 36042 ft 444 kts 313°
2026-05-08 15:46 17.40521 -64.43996 36048 ft 444 kts 313°
2026-05-08 15:46 17.44368 -64.49053 36056 ft 443 kts 313°
2026-05-08 15:47 17.48188 -64.54083 36054 ft 443 kts 313°
2026-05-08 15:47 17.52029 -64.59154 36056 ft 443 kts 313°
2026-05-08 15:48 17.57756 -64.66734 36056 ft 443 kts 313°
2026-05-08 15:49 17.61590 -64.71820 36077 ft 443 kts 313°
2026-05-08 15:49 17.65425 -64.76902 36080 ft 443 kts 313°
2026-05-08 15:50 17.69237 -64.81943 36078 ft 443 kts 313°
2026-05-08 15:50 17.73070 -64.87023 36080 ft 443 kts 313°
2026-05-08 15:51 17.76901 -64.92107 36094 ft 443 kts 313°
2026-05-08 15:51 17.80705 -64.97149 36074 ft 443 kts 313°
2026-05-08 15:52 17.84523 -65.02225 36072 ft 443 kts 313°
2026-05-08 15:52 17.88332 -65.07304 36069 ft 442 kts 313°
2026-05-08 15:53 17.92151 -65.12389 36067 ft 442 kts 313°
2026-05-08 15:53 17.95938 -65.17433 36059 ft 442 kts 313°
2026-05-08 15:54 17.99753 -65.22508 36052 ft 442 kts 313°
2026-05-08 15:54 18.03540 -65.27559 36057 ft 442 kts 313°
2026-05-08 15:55 18.07350 -65.32646 36062 ft 442 kts 313°
2026-05-08 15:55 18.13037 -65.40247 36054 ft 442 kts 312°
2026-05-08 15:56 18.16834 -65.45334 36059 ft 442 kts 312°
2026-05-08 15:56 18.20633 -65.50418 36062 ft 441 kts 312°
2026-05-08 15:57 18.24410 -65.55482 36056 ft 441 kts 312°
2026-05-08 15:57 18.28212 -65.60564 36065 ft 441 kts 312°
2026-05-08 15:58 18.31982 -65.65627 36050 ft 441 kts 312°
2026-05-08 15:58 18.35772 -65.70733 36058 ft 441 kts 312°
2026-05-08 15:59 18.39536 -65.75800 36059 ft 441 kts 312°
2026-05-08 15:59 18.43332 -65.80906 36064 ft 441 kts 312°
2026-05-08 16:00 18.47100 -65.85972 36060 ft 441 kts 312°
2026-05-08 16:00 18.50900 -65.91076 36063 ft 441 kts 312°
2026-05-08 16:01 18.54688 -65.96184 36052 ft 441 kts 312°
2026-05-08 16:01 18.58432 -66.01249 36060 ft 441 kts 312°
2026-05-08 16:02 18.62214 -66.06356 36060 ft 441 kts 312°
2026-05-08 16:02 18.65988 -66.11456 36056 ft 440 kts 312°
2026-05-08 16:03 18.69741 -66.16537 36054 ft 440 kts 311°
2026-05-08 16:03 18.73508 -66.21646 36053 ft 440 kts 311°
2026-05-08 16:04 18.77251 -66.26720 36053 ft 440 kts 311°
2026-05-08 16:04 18.81027 -66.31835 36055 ft 441 kts 311°
2026-05-08 16:05 18.84772 -66.36916 36045 ft 441 kts 311°
2026-05-08 16:05 18.88542 -66.42036 36047 ft 441 kts 311°
2026-05-08 16:06 18.92305 -66.47158 36055 ft 441 kts 311°
2026-05-08 16:06 18.95907 -66.52381 36061 ft 442 kts 308°
2026-05-08 16:07 18.99339 -66.57791 36054 ft 442 kts 307°
2026-05-08 16:07 19.02737 -66.63169 36051 ft 442 kts 308°
2026-05-08 16:08 19.06214 -66.68552 36055 ft 442 kts 308°
2026-05-08 16:08 19.09707 -66.73909 36061 ft 442 kts 308°
2026-05-08 16:09 19.13163 -66.79231 36056 ft 442 kts 308°
2026-05-08 16:09 19.16633 -66.84613 36056 ft 442 kts 308°
2026-05-08 16:10 19.20094 -66.89998 36053 ft 442 kts 308°
2026-05-08 16:10 19.23547 -66.95350 36051 ft 442 kts 308°
2026-05-08 16:11 19.27027 -67.00738 36051 ft 443 kts 308°
2026-05-08 16:11 19.30474 -67.06094 36054 ft 443 kts 307°
2026-05-08 16:12 19.33949 -67.11490 36053 ft 443 kts 307°
2026-05-08 16:12 19.37403 -67.16856 36056 ft 443 kts 307°
2026-05-08 16:13 19.40871 -67.22265 36048 ft 443 kts 307°
2026-05-08 16:13 19.44339 -67.27677 36052 ft 443 kts 307°
2026-05-08 16:14 19.47786 -67.33051 36060 ft 443 kts 307°
2026-05-08 16:14 19.51253 -67.38467 36060 ft 443 kts 307°
2026-05-08 16:15 19.54715 -67.43877 36062 ft 443 kts 307°
2026-05-08 16:15 19.58152 -67.49257 36063 ft 443 kts 307°
2026-05-08 16:16 19.61615 -67.54681 36055 ft 443 kts 307°
2026-05-08 16:16 19.65056 -67.60070 36058 ft 443 kts 307°
2026-05-08 16:17 19.67929 -67.64581 36064 ft 443 kts 307°
2026-05-08 16:17 19.71946 -67.70886 36070 ft 442 kts 307°
2026-05-08 16:18 19.75371 -67.76263 36070 ft 442 kts 307°
2026-05-08 16:18 19.78818 -67.81684 36070 ft 441 kts 307°
2026-05-08 16:19 19.82243 -67.87071 36071 ft 441 kts 307°
2026-05-08 16:19 19.85683 -67.92484 36069 ft 441 kts 307°
2026-05-08 16:20 19.89113 -67.97905 36067 ft 441 kts 307°
2026-05-08 16:20 19.92523 -68.03290 36066 ft 441 kts 307°
2026-05-08 16:21 19.95957 -68.08710 36066 ft 441 kts 307°
2026-05-08 16:21 19.99366 -68.14103 36068 ft 441 kts 307°
2026-05-08 16:22 20.02786 -68.19530 36066 ft 441 kts 307°
2026-05-08 16:22 20.06211 -68.24952 36062 ft 441 kts 307°
2026-05-08 16:23 20.09624 -68.30351 36062 ft 442 kts 307°
2026-05-08 16:23 20.13048 -68.35788 36063 ft 442 kts 307°
2026-05-08 16:24 20.16471 -68.41234 36066 ft 442 kts 307°
2026-05-08 16:24 20.19874 -68.46647 36067 ft 442 kts 307°
2026-05-08 16:25 20.23280 -68.52060 36066 ft 442 kts 307°
2026-05-08 16:25 20.26657 -68.57544 36064 ft 442 kts 304°
2026-05-08 16:26 20.29780 -68.63216 36067 ft 443 kts 302°
2026-05-08 16:26 20.32779 -68.68912 36068 ft 443 kts 302°
2026-05-08 16:27 20.35838 -68.74633 36068 ft 443 kts 303°
2026-05-08 16:27 20.38936 -68.80321 36067 ft 443 kts 303°
2026-05-08 16:28 20.42030 -68.85970 36069 ft 443 kts 303°
2026-05-08 16:28 20.45132 -68.91656 36065 ft 443 kts 303°
2026-05-08 16:29 20.48199 -68.97308 36070 ft 442 kts 302°
2026-05-08 16:29 20.51279 -69.03002 36072 ft 442 kts 302°
2026-05-08 16:30 20.54354 -69.08685 36074 ft 442 kts 302°
2026-05-08 16:30 20.57409 -69.14337 36076 ft 442 kts 302°
2026-05-08 16:31 20.60487 -69.20031 36065 ft 442 kts 302°
2026-05-08 16:31 20.63538 -69.25685 36071 ft 442 kts 302°
2026-05-08 16:32 20.66614 -69.31374 36073 ft 442 kts 302°
2026-05-08 16:32 20.69687 -69.37078 36073 ft 442 kts 302°
2026-05-08 16:33 20.72743 -69.42748 36072 ft 442 kts 302°
2026-05-08 16:33 20.75817 -69.48464 36077 ft 442 kts 302°
2026-05-08 16:34 20.78869 -69.54141 36064 ft 442 kts 302°
2026-05-08 16:34 20.81938 -69.59854 36061 ft 442 kts 302°
2026-05-08 16:35 20.85000 -69.65569 36068 ft 443 kts 302°
2026-05-08 16:35 20.88060 -69.71289 36071 ft 443 kts 302°
2026-05-08 16:36 20.91118 -69.77008 36072 ft 443 kts 302°
2026-05-08 16:36 20.94157 -69.82699 36070 ft 442 kts 302°
2026-05-08 16:37 20.97216 -69.88419 36067 ft 442 kts 302°
2026-05-08 16:37 21.00270 -69.94137 36067 ft 442 kts 302°
2026-05-08 16:38 21.03302 -69.99818 36064 ft 442 kts 302°
2026-05-08 16:38 21.06343 -70.05540 36062 ft 442 kts 301°
2026-05-08 16:39 21.08867 -70.10293 36064 ft 442 kts 301°
2026-05-08 16:39 21.12405 -70.16961 36066 ft 442 kts 301°
2026-05-08 16:40 21.14932 -70.21731 36059 ft 442 kts 301°
2026-05-08 16:40 21.17979 -70.27460 36058 ft 442 kts 301°
2026-05-08 16:41 21.21000 -70.33159 36057 ft 442 kts 301°
2026-05-08 16:42 21.25555 -70.41788 36059 ft 442 kts 301°
2026-05-08 16:42 21.28578 -70.47495 36073 ft 442 kts 301°
2026-05-08 16:43 21.31611 -70.53238 36077 ft 442 kts 301°
2026-05-08 16:43 21.34637 -70.58997 36069 ft 442 kts 301°
2026-05-08 16:44 21.37648 -70.64725 36071 ft 442 kts 301°
2026-05-08 16:44 21.40684 -70.70485 36066 ft 443 kts 301°
2026-05-08 16:45 21.43710 -70.76238 36068 ft 443 kts 301°
2026-05-08 16:45 21.46717 -70.81977 36069 ft 443 kts 301°
2026-05-08 16:46 21.49744 -70.87763 36068 ft 443 kts 301°
2026-05-08 16:46 21.52751 -70.93510 36063 ft 443 kts 301°
2026-05-08 16:47 21.55776 -70.99285 36065 ft 443 kts 301°
2026-05-08 16:47 21.58770 -71.05036 36066 ft 443 kts 300°
2026-05-08 16:48 21.61653 -71.10904 36069 ft 444 kts 299°
2026-05-08 16:48 21.64465 -71.16789 36069 ft 444 kts 298°
2026-05-08 16:49 21.67297 -71.22676 36066 ft 444 kts 299°
2026-05-08 16:49 21.70168 -71.28564 36070 ft 443 kts 299°
2026-05-08 16:50 21.73020 -71.34409 36072 ft 443 kts 299°
2026-05-08 16:50 21.75876 -71.40309 36071 ft 443 kts 299°
2026-05-08 16:51 21.78704 -71.46164 36067 ft 443 kts 299°
2026-05-08 16:51 21.81552 -71.52062 36069 ft 443 kts 299°
2026-05-08 16:52 21.84379 -71.57908 36068 ft 443 kts 298°
2026-05-08 16:52 21.87232 -71.63813 36063 ft 443 kts 298°
2026-05-08 16:53 21.91494 -71.72665 36063 ft 443 kts 298°
2026-05-08 16:53 21.94324 -71.78531 36063 ft 443 kts 298°
2026-05-08 16:54 21.97163 -71.84427 36052 ft 443 kts 298°
2026-05-08 16:54 21.99978 -71.90301 36055 ft 443 kts 298°
2026-05-08 16:55 22.02807 -71.96218 36052 ft 443 kts 298°
2026-05-08 16:55 22.05640 -72.02127 36055 ft 444 kts 298°
2026-05-08 16:56 22.08461 -72.08005 36066 ft 444 kts 298°
2026-05-08 16:56 22.11294 -72.13931 36070 ft 444 kts 298°
2026-05-08 16:57 22.14124 -72.19866 36069 ft 444 kts 298°
2026-05-08 16:57 22.16957 -72.25795 36065 ft 444 kts 298°
2026-05-08 16:58 22.19763 -72.31694 36065 ft 444 kts 298°
2026-05-08 16:58 22.22585 -72.37639 36065 ft 444 kts 298°
2026-05-08 16:59 22.25398 -72.43552 36065 ft 444 kts 298°
2026-05-08 16:59 22.28225 -72.49501 36068 ft 444 kts 298°
2026-05-08 17:00 22.31027 -72.55409 36072 ft 445 kts 298°
2026-05-08 17:00 22.33850 -72.61361 36071 ft 445 kts 298°
2026-05-08 17:01 22.36668 -72.67321 36073 ft 444 kts 298°
2026-05-08 17:01 22.39459 -72.73247 36074 ft 444 kts 298°
2026-05-08 17:02 22.42275 -72.79212 36075 ft 444 kts 298°
2026-05-08 17:02 22.45082 -72.85168 36070 ft 444 kts 298°
2026-05-08 17:03 22.47864 -72.91075 36070 ft 444 kts 298°
2026-05-08 17:03 22.50670 -72.97034 36075 ft 444 kts 298°
2026-05-08 17:04 22.53460 -73.02993 36073 ft 444 kts 297°
2026-05-08 17:04 22.56247 -73.08943 36076 ft 443 kts 297°
2026-05-08 17:05 22.59027 -73.14889 36070 ft 443 kts 297°
2026-05-08 17:05 22.61798 -73.20820 36071 ft 443 kts 297°
2026-05-08 17:06 22.64582 -73.26780 36073 ft 443 kts 297°
2026-05-08 17:06 22.67372 -73.32739 36068 ft 443 kts 297°
2026-05-08 17:07 22.70127 -73.38661 36072 ft 443 kts 297°
2026-05-08 17:07 22.72900 -73.44630 36067 ft 443 kts 297°
2026-05-08 17:08 22.75657 -73.50554 36072 ft 442 kts 297°
2026-05-08 17:08 22.78422 -73.56511 36067 ft 442 kts 297°
2026-05-08 17:09 22.81181 -73.62473 36062 ft 442 kts 297°
2026-05-08 17:09 22.83943 -73.68431 36051 ft 442 kts 297°
2026-05-08 17:10 22.86697 -73.74392 36054 ft 442 kts 297°
2026-05-08 17:10 22.89434 -73.80322 36058 ft 442 kts 297°
2026-05-08 17:11 22.92191 -73.86311 36067 ft 443 kts 297°
2026-05-08 17:11 22.94930 -73.92257 36071 ft 442 kts 297°
2026-05-08 17:12 22.97685 -73.98234 36077 ft 441 kts 297°
2026-05-08 17:12 23.00429 -74.04200 36078 ft 441 kts 297°
2026-05-08 17:13 23.03152 -74.10127 36072 ft 440 kts 297°
2026-05-08 17:13 23.05889 -74.16088 36071 ft 440 kts 297°
2026-05-08 17:14 23.08606 -74.22019 36073 ft 440 kts 297°
2026-05-08 17:14 23.11327 -74.27976 36073 ft 440 kts 297°
2026-05-08 17:15 23.14052 -74.33942 36071 ft 440 kts 297°
2026-05-08 17:15 23.16760 -74.39866 36077 ft 439 kts 297°
2026-05-08 17:16 23.19479 -74.45827 36075 ft 439 kts 297°
2026-05-08 17:16 23.22189 -74.51773 36078 ft 438 kts 297°
2026-05-08 17:17 23.24889 -74.57725 36073 ft 438 kts 297°
2026-05-08 17:17 23.27581 -74.63669 36073 ft 438 kts 297°
2026-05-08 17:18 23.30277 -74.69606 36065 ft 438 kts 297°
2026-05-08 17:18 23.32957 -74.75514 36078 ft 437 kts 297°
2026-05-08 17:19 23.35648 -74.81454 36070 ft 436 kts 297°
2026-05-08 17:19 23.38328 -74.87383 36070 ft 436 kts 296°
2026-05-08 17:20 23.40525 -74.93484 36070 ft 436 kts 289°
2026-05-08 17:20 23.42428 -74.99762 36070 ft 436 kts 289°
2026-05-08 17:21 23.44345 -75.06035 36071 ft 436 kts 289°
2026-05-08 17:21 23.46268 -75.12313 36066 ft 436 kts 289°
2026-05-08 17:22 23.48163 -75.18538 36065 ft 435 kts 289°
2026-05-08 17:22 23.50061 -75.24795 36066 ft 435 kts 289°
2026-05-08 17:23 23.51957 -75.31060 36062 ft 435 kts 289°
2026-05-08 17:23 23.53852 -75.37320 36062 ft 435 kts 289°
2026-05-08 17:24 23.55732 -75.43557 36054 ft 435 kts 289°
2026-05-08 17:24 23.57620 -75.49822 36057 ft 434 kts 289°
2026-05-08 17:25 23.59506 -75.56090 36061 ft 434 kts 289°
2026-05-08 17:25 23.61389 -75.62362 36060 ft 434 kts 289°
2026-05-08 17:26 23.63266 -75.68591 36053 ft 434 kts 289°
2026-05-08 17:26 23.65146 -75.74862 36052 ft 434 kts 289°
2026-05-08 17:27 23.67004 -75.81093 36050 ft 434 kts 289°
2026-05-08 17:27 23.68875 -75.87361 36048 ft 434 kts 289°
2026-05-08 17:28 23.70744 -75.93622 36045 ft 434 kts 289°
2026-05-08 17:28 23.72603 -75.99895 36047 ft 434 kts 289°
2026-05-08 17:29 23.74453 -76.06131 36047 ft 434 kts 289°
2026-05-08 17:29 23.76322 -76.12406 36057 ft 434 kts 289°
2026-05-08 17:30 23.78175 -76.18675 36051 ft 433 kts 288°
2026-05-08 17:30 23.80022 -76.24910 36055 ft 433 kts 289°
2026-05-08 17:31 23.81877 -76.31183 36053 ft 433 kts 288°
2026-05-08 17:31 23.83714 -76.37443 36052 ft 433 kts 288°
2026-05-08 17:32 23.85540 -76.43675 36048 ft 433 kts 288°
2026-05-08 17:32 23.87079 -76.48926 36051 ft 433 kts 288°
2026-05-08 17:33 23.88908 -76.55143 36049 ft 433 kts 288°
2026-05-08 17:33 23.90744 -76.61404 36048 ft 433 kts 288°
2026-05-08 17:34 23.92580 -76.67671 36049 ft 433 kts 288°
2026-05-08 17:34 23.94417 -76.73945 36048 ft 433 kts 288°
2026-05-08 17:35 23.96245 -76.80220 36049 ft 433 kts 288°
2026-05-08 17:35 23.98063 -76.86494 36052 ft 433 kts 288°
2026-05-08 17:36 23.99881 -76.92764 36049 ft 433 kts 288°
2026-05-08 17:36 24.01693 -76.99008 36051 ft 433 kts 288°
2026-05-08 17:37 24.03513 -77.05290 36054 ft 433 kts 288°
2026-05-08 17:37 24.05330 -77.11578 36055 ft 433 kts 288°
2026-05-08 17:38 24.07131 -77.17833 36050 ft 433 kts 288°
2026-05-08 17:38 24.08945 -77.24132 36050 ft 433 kts 288°
2026-05-08 17:39 24.10752 -77.30425 36054 ft 432 kts 288°
2026-05-08 17:39 24.12552 -77.36674 36053 ft 432 kts 288°
2026-05-08 17:40 24.14370 -77.42964 36057 ft 433 kts 288°
2026-05-08 17:40 24.16166 -77.49272 36055 ft 433 kts 288°
2026-05-08 17:41 24.17945 -77.55537 36051 ft 433 kts 288°
2026-05-08 17:41 24.19739 -77.61844 36053 ft 433 kts 288°
2026-05-08 17:42 24.21521 -77.68108 36057 ft 433 kts 288°
2026-05-08 17:42 24.23309 -77.74421 36055 ft 433 kts 288°
2026-05-08 17:43 24.25099 -77.80733 36055 ft 433 kts 288°
2026-05-08 17:43 24.27031 -77.86957 36057 ft 433 kts 295°
2026-05-08 17:44 24.30195 -77.92566 36056 ft 433 kts 303°
2026-05-08 17:44 24.33569 -77.98040 36056 ft 433 kts 303°
2026-05-08 17:45 24.36918 -78.03495 36050 ft 432 kts 303°
2026-05-08 17:45 24.40280 -78.08979 36050 ft 432 kts 303°
2026-05-08 17:46 24.43635 -78.14454 36053 ft 432 kts 303°
2026-05-08 17:46 24.46976 -78.19903 36054 ft 432 kts 303°
2026-05-08 17:47 24.50327 -78.25382 36057 ft 432 kts 303°
2026-05-08 17:47 24.53110 -78.29947 36056 ft 432 kts 303°
2026-05-08 17:48 24.56998 -78.36324 36065 ft 431 kts 303°
2026-05-08 17:48 24.60338 -78.41800 36068 ft 431 kts 303°
2026-05-08 17:49 24.63660 -78.47236 36061 ft 430 kts 303°
2026-05-08 17:49 24.66984 -78.52701 35793 ft 429 kts 303°
2026-05-08 17:50 24.68644 -78.55438 35566 ft 429 kts 302°
2026-05-08 17:50 24.70305 -78.58177 35336 ft 429 kts 302°
2026-05-08 17:50 24.71948 -78.60884 35101 ft 430 kts 303°
2026-05-08 17:50 24.73610 -78.63619 34865 ft 430 kts 302°
2026-05-08 17:51 24.75271 -78.66360 34638 ft 430 kts 302°
2026-05-08 17:51 24.76935 -78.69107 34416 ft 431 kts 302°
2026-05-08 17:51 24.78603 -78.71865 34189 ft 431 kts 302°
2026-05-08 17:51 24.80263 -78.74613 33953 ft 431 kts 302°
2026-05-08 17:52 24.81928 -78.77364 33695 ft 432 kts 302°
2026-05-08 17:52 24.83579 -78.80096 33437 ft 433 kts 302°
2026-05-08 17:52 24.86928 -78.85632 32927 ft 434 kts 302°
2026-05-08 17:53 24.88606 -78.88406 32683 ft 435 kts 302°
2026-05-08 17:53 24.90291 -78.91193 32434 ft 436 kts 302°
2026-05-08 17:53 24.91974 -78.93979 32197 ft 437 kts 302°
2026-05-08 17:53 24.93657 -78.96771 31954 ft 437 kts 302°
2026-05-08 17:54 24.95323 -78.99535 31715 ft 438 kts 302°
2026-05-08 17:54 24.97012 -79.02339 31477 ft 439 kts 302°
2026-05-08 17:54 24.98701 -79.05146 31240 ft 439 kts 302°
2026-05-08 17:54 25.00394 -79.07963 31002 ft 440 kts 302°
2026-05-08 17:55 25.02088 -79.10783 30531 ft 440 kts 302°
2026-05-08 17:55 25.03790 -79.13617 29335 ft 447 kts 302°
2026-05-08 17:55 25.05519 -79.16496 28096 ft 451 kts 302°
2026-05-08 17:55 25.07256 -79.19389 26990 ft 453 kts 302°
2026-05-08 17:56 25.08976 -79.22255 26378 ft 443 kts 302°
2026-05-08 17:56 25.10645 -79.25040 25649 ft 436 kts 302°
2026-05-08 17:56 25.12310 -79.27827 24929 ft 431 kts 302°
2026-05-08 17:56 25.13956 -79.30581 24216 ft 426 kts 302°
2026-05-08 17:57 25.15580 -79.33294 23498 ft 421 kts 302°
2026-05-08 17:57 25.17174 -79.35962 23095 ft 408 kts 302°
2026-05-08 17:57 25.18683 -79.38486 22887 ft 391 kts 302°
2026-05-08 17:57 25.20162 -79.40965 22611 ft 382 kts 302°
2026-05-08 17:58 25.20880 -79.42169 22493 ft 380 kts 302°
2026-05-08 18:17 25.20950 -79.42285 22479 ft 379 kts 302°
2026-05-08 18:18 25.22407 -79.44728 22009 ft 378 kts 302°
2026-05-08 18:18 25.23850 -79.47148 21578 ft 376 kts 302°
2026-05-08 18:18 25.25287 -79.49561 21062 ft 374 kts 302°
2026-05-08 18:18 25.26700 -79.51934 20540 ft 372 kts 302°
2026-05-08 18:19 25.28120 -79.54323 20021 ft 370 kts 302°
2026-05-08 18:19 25.29534 -79.56698 19503 ft 368 kts 302°
2026-05-08 18:19 25.30936 -79.59057 18991 ft 366 kts 302°
2026-05-08 18:19 25.32331 -79.61404 18487 ft 364 kts 302°
2026-05-08 18:20 25.33717 -79.63736 17934 ft 362 kts 302°
2026-05-08 18:20 25.34630 -79.65275 17589 ft 359 kts 302°
2026-05-08 18:20 25.35996 -79.67581 17099 ft 357 kts 302°
2026-05-08 18:20 25.37353 -79.69867 16597 ft 355 kts 302°
2026-05-08 18:21 25.38704 -79.72148 16104 ft 353 kts 302°
2026-05-08 18:21 25.40077 -79.74400 15762 ft 351 kts 304°
2026-05-08 18:21 25.41470 -79.76587 15456 ft 352 kts 304°
2026-05-08 18:21 25.42901 -79.78787 15142 ft 351 kts 305°
2026-05-08 18:22 25.44329 -79.80974 14838 ft 350 kts 304°
2026-05-08 18:22 25.45758 -79.83172 14537 ft 350 kts 304°
2026-05-08 18:22 25.47152 -79.85329 14242 ft 349 kts 304°
2026-05-08 18:22 25.48559 -79.87518 13921 ft 348 kts 304°
2026-05-08 18:23 25.49973 -79.89720 13200 ft 352 kts 304°
2026-05-08 18:23 25.51385 -79.91928 12614 ft 351 kts 304°
2026-05-08 18:23 25.52789 -79.94128 12088 ft 348 kts 304°
2026-05-08 18:23 25.54193 -79.96327 11549 ft 347 kts 304°
2026-05-08 18:24 25.55561 -79.98468 11424 ft 333 kts 304°
2026-05-08 18:24 25.56875 -80.00523 11303 ft 320 kts 304°
2026-05-08 18:24 25.58124 -80.02477 11113 ft 312 kts 304°
2026-05-08 18:24 25.59386 -80.04450 10788 ft 309 kts 304°
2026-05-08 18:25 25.60614 -80.06369 10421 ft 309 kts 304°
2026-05-08 18:25 25.61871 -80.08337 10056 ft 308 kts 303°
2026-05-08 18:25 25.63106 -80.10274 9679 ft 307 kts 303°
2026-05-08 18:25 25.64317 -80.12178 9321 ft 305 kts 303°
2026-05-08 18:26 25.65492 -80.14124 8971 ft 302 kts 297°
2026-05-08 18:26 25.66391 -80.16211 8713 ft 297 kts 294°
2026-05-08 18:26 25.67263 -80.18276 8445 ft 294 kts 294°
2026-05-08 18:26 25.68136 -80.20324 8166 ft 292 kts 294°
2026-05-08 18:27 25.69004 -80.22356 7896 ft 290 kts 294°
2026-05-08 18:27 25.69577 -80.23695 7700 ft 289 kts 294°
2026-05-08 18:27 25.70694 -80.26392 7307 ft 286 kts 289°
2026-05-08 18:27 25.71136 -80.28525 7021 ft 283 kts 274°
2026-05-08 18:28 25.71121 -80.30665 6739 ft 280 kts 266°
2026-05-08 18:28 25.71013 -80.32822 6452 ft 279 kts 266°
2026-05-08 18:28 25.70911 -80.34968 6145 ft 277 kts 267°
2026-05-08 18:28 25.70832 -80.37106 5801 ft 277 kts 268°
2026-05-08 18:29 25.70747 -80.39231 5494 ft 274 kts 267°
2026-05-08 18:29 25.70634 -80.41334 5237 ft 271 kts 266°
2026-05-08 18:29 25.70498 -80.43386 5053 ft 270 kts 266°
2026-05-08 18:29 25.70345 -80.45455 4938 ft 268 kts 265°
2026-05-08 18:30 25.70185 -80.47493 4753 ft 261 kts 265°
2026-05-08 18:30 25.70024 -80.49470 4626 ft 253 kts 265°
2026-05-08 18:30 25.69866 -80.51383 4493 ft 245 kts 265°
2026-05-08 18:30 25.69715 -80.53208 4344 ft 230 kts 265°
2026-05-08 18:31 25.69570 -80.54946 3948 ft 225 kts 265°
2026-05-08 18:31 25.69438 -80.56681 3487 ft 227 kts 269°
2026-05-08 18:31 25.69820 -80.58342 3141 ft 224 kts 302°
2026-05-08 18:31 25.70978 -80.59448 3001 ft 223 kts 336°
2026-05-08 18:32 25.72463 -80.59962 2994 ft 225 kts 353°
2026-05-08 18:32 25.74021 -80.59997 3004 ft 225 kts
2026-05-08 18:32 25.75569 -80.59783 2987 ft 224 kts 21°
2026-05-08 18:32 25.76804 -80.58797 3008 ft 224 kts 48°
2026-05-08 18:33 25.77558 -80.57303 2988 ft 224 kts 81°
2026-05-08 18:33 25.77619 -80.55572 3007 ft 225 kts 89°
2026-05-08 18:33 25.77661 -80.53842 3005 ft 225 kts 88°
2026-05-08 18:33 25.77730 -80.52108 3001 ft 224 kts 87°
2026-05-08 18:34 25.77805 -80.50384 3005 ft 224 kts 87°
2026-05-08 18:34 25.77879 -80.48677 2942 ft 224 kts 87°
2026-05-08 18:34 25.77953 -80.46951 2711 ft 223 kts 87°
2026-05-08 18:34 25.78026 -80.45247 2440 ft 220 kts 87°
2026-05-08 18:35 25.78098 -80.43567 2165 ft 214 kts 88°
2026-05-08 18:35 25.78167 -80.41953 1896 ft 202 kts 88°
2026-05-08 18:35 25.78231 -80.40439 1655 ft 195 kts 88°
2026-05-08 18:35 25.78293 -80.38985 1402 ft 183 kts 88°
2026-05-08 18:36 25.78351 -80.37624 1170 ft 169 kts 88°
2026-05-08 18:36 25.78404 -80.36375 979 ft 155 kts 88°
2026-05-08 18:36 25.78452 -80.35242 774 ft 138 kts 89°
2026-05-08 18:36 25.78495 -80.34210 626 ft 130 kts 89°
2026-05-08 18:37 25.78537 -80.33214 435 ft 128 kts 87°
2026-05-08 18:37 25.78581 -80.32235 297 ft 127 kts 88°
2026-05-08 18:37 25.78623 -80.31273 92 ft 126 kts 89°
2026-05-08 18:37 25.78662 -80.30332 19 ft 111 kts 88°
2026-05-08 18:38 25.78689 -80.29646 18 ft 64 kts 87°
2026-05-08 18:38 25.78712 -80.29319 18 ft 32 kts 79°
2026-05-08 18:38 25.78800 -80.29154 16 ft 20 kts 52°
2026-05-08 18:38 25.78832 -80.29002 17 ft 21 kts 76°
2026-05-08 18:39 25.78865 -80.28849 15 ft 19 kts 81°
2026-05-08 18:39 25.78875 -80.28712 14 ft 13 kts 72°
2026-05-08 18:39 25.78959 -80.28683 14 ft 15 kts 358°
2026-05-08 18:39 25.79065 -80.28688 15 ft 16 kts 357°
2026-05-08 18:40 25.79177 -80.28659 15 ft 18 kts 26°
2026-05-08 18:40 25.79269 -80.28599 17 ft 11 kts 32°
2026-05-08 18:40 25.79309 -80.28571 17 ft 6 kts 36°
2026-05-08 18:40 25.79322 -80.28524 19 ft 7 kts 85°
2026-05-08 18:41 25.79327 -80.28455 20 ft 11 kts 85°
2026-05-08 18:41 25.79333 -80.28363 20 ft 13 kts 86°
2026-05-08 18:41 25.79348 -80.28261 20 ft 14 kts 68°
2026-05-08 18:41 25.79370 -80.28164 21 ft 13 kts 78°
2026-05-08 18:42 25.79410 -80.28060 21 ft 10 kts 66°
2026-05-08 18:42 25.79440 -80.28024 21 ft 8 kts 37°
2026-05-08 18:42 25.79457 -80.28010 20 ft 1 kts 36°
2026-05-08 18:42 25.79458 -80.28010 20 ft 0 kts 36°